STARLINK-34065, 63813

Orbit data source: Space-Track

STARLINK-34065, 63813 is a payload satellite owned by SpaceX/Seattle (US) in LEO that was launched on Sun, 04 May 2025 UTC via an FALCON 9 launch vehicle from the Air Force Eastern Test Range (AFETR). Payload-class satellites include a variety of spacecraft equipped with specific instruments for various scientific and technological missions. These include communications satellites like Starlink; space stations such as the ISS; scientific satellites like the Hubble; Earth observation satellites from companies like Planet Labs, Umbra, and HawkEye 360; GPS; miniature CubeSats for education and research; and military/defense satellites.

Loading next visibility...
Identifier
63813, 2025-092K
Orbit
LEO
Last TLE update
11 hours ago
Origin
Manufacturer
SpaceX/Seattle
Mission
Operational Commercial Communications
Bus & Motor
STARLINK V2MO, Unknown motor
Mass
575 kg wet, ~530 kg dry
Launch date (UTC)
2025-05-04 (2 months ago)
Launch vehicle
FALCON 9
Launch site
Air Force Eastern Test Range (AFETR)
Object type
Payload
Rocket body
Debris
Shape & HBR
Box + 1 Pan, 29 m
Radar Cross Section
41.120 m², Large (>1 m²)

Expand to show TLE details & history

TLE from 11 hours ago
0 STARLINK-34065
1 63813U 25092K   25189.17783099  .00022923  00000-0  83944-3 0  9997
2 63813  43.0010 109.5716 0001752 271.3837  88.6814 15.27599666 11201
Epoch: 2025-07-08T04:16Z
TLE epoch observation values (Epoch: 2025-07-08T04:16:04.597Z)
Latitude
-0.00002°
Longitude
119.17588°
Altitude
482.738 km
Speed
7.626 km/s
True Right ascension
07h 18m 17s
True Declination
0° 00' 00"
Sunlit
Object was in daylight at epoch
Visualization orbit readout
Latitude
8.65105°
Longitude
125.91439°
Altitude
482.168 km
Speed
7.627 km/s
Apparent Right ascension
10h 38m 25s
Apparent Declination
-25° 11' 44"
Sunlit
Object is in daylight
Visualization observer readout
Local Sidereal Time
03:25:18
Azimuth
99.541° ESE
Elevation
-29.395°
Doppler factor
1
Orbital elements
Apogee altitude
486.138 km
Perigee altitude
483.733 km
Semi-major axis
6,863.072 km
Eccentricity
0.00018
Inclination
43.001°
RAAN
109.5716°
Arg. of periapsis
271.3837°
True anomaly
Unknown
Mean anomaly
88.6814°
Eccentric anomaly
Unknown
Mean motion
3.81738 °/min
Orbital period
94.31 mins
BSTAR
0.00083944
Loading maneuver chart data...
Loading SW <> Apogee altitude chart data...
Loading historical data...
Loading historical data...
Loading historical data...
Loading historical data...
Loading historical data...
Loading historical data...
Loading historical data...

STARLINK-34065 Visibility forecast

Observer location: undefined°, undefined°

Span
Click to sort rows by Start time (UTC) header in descending order
Start Az.
Max El. time (UTC)
Max El. Az.
Max El.
End time (UTC)
End Az.
6 mins2025-07-08 21:43:28.117Z207.362° SW2025-07-08 21:46:28.117Z144.955° SSE26.575°2025-07-08 21:49:28.117Z87.741° E
6 mins2025-07-08 23:22:28.117Z260.123° W2025-07-08 23:25:28.117Z35.812° NE42.825°2025-07-08 23:28:28.117Z70.463° E
5 mins2025-07-09 01:02:28.117Z297.023° NW2025-07-09 01:04:28.117Z13.546° NNE37.993°2025-07-09 01:07:28.117Z78.208° E
5 mins2025-07-09 02:41:28.117Z285.432° WNW2025-07-09 02:43:28.117Z178.371° S44.697°2025-07-09 02:46:28.117Z113.404° SE
4 mins2025-07-09 04:20:28.117Z246.926° WSW2025-07-09 04:22:28.117Z204.962° SW18.3°2025-07-09 04:24:28.117Z171.005° S
|